Spencer, VA

9:45 PM EST on February 13, 2016 (GMT -0500)
Blue Ridge

Weather History for KMTV - May, 2013

Change the Weather History Date:

Wednesday, May 22, 2013

  Actual Average (KGSO) Record (KGSO)
Temperature  
Mean Temperature 74 °F 68 °F  
Max Temperature 85 °F 79 °F 97 °F (1941)
Min Temperature 64 °F 58 °F 40 °F (2002)
Degree Days  
Heating Degree Days 0 1  
Month to date heating degree days 58  
Since 1 July heating degree days 3604  
Cooling Degree Days 10 5  
Month to date cooling degree days 69  
Year to date cooling degree days 107  
Growing Degree Days 24 (Base 50)    
Moisture  
Dew Point 66 °F    
Average Humidity 81    
Maximum Humidity 98    
Minimum Humidity 56    
Precipitation  
Precipitation 1.26 in 0.11 in 1.49 in (2003)
Month to date precipitation 2.31  
Year to date precipitation 15.63  
Sea Level Pressure  
Sea Level Pressure 30.00 in    
Wind  
Wind Speed 2 mph (SSW)    
Max Wind Speed 14 mph    
Max Gust Speed 25 mph    
Visibility 8 miles    
Events Rain , Thunderstorm    
T = Trace of Precipitation, MM = Missing Value Source: NWS Daily Summary

Daily Weather History Graph

Daily Weather History Graph

Search for Another Location

Airport or City:

Trip Planner

Search our weather history database for the weather conditions in past years. The results will help you decide how hot, cold, wet, or windy it might be!

Date:

Astronomy

May. 22, 2013 Rise Set
Actual Time 6:07 AM EDT 8:26 PM EDT
Civil Twilight 5:38 AM EDT 8:55 PM EDT
Nautical Twilight 5:02 AM EDT 9:31 PM EDT
Astronomical Twilight 4:22 AM EDT 10:11 PM EDT
Moon 5:50 PM EDT (5/22) 4:06 AM EDT (5/22)
Length of Visible Light 15h 17m
Length of Day
14h 18m
Waxing Gibbous, 91% of the Moon is Illuminated
May 22
Waxing Gibbous
May 25
Full
May 31
Last Quarter
Jun 8
New
Jun 16
First Quarter

Hourly Weather History & Observations

Time (EDT) Temp. Heat Index Dew Point Humidity Pressure Visibility Wind Dir Wind Speed Gust Speed Precip Events Conditions
12:15 AM 70.7 °F - 66.4 °F 86% 30.02 in 10.0 mi Calm Calm - N/A   Clear
12:35 AM 69.8 °F - 66.2 °F 88% 30.03 in 10.0 mi Calm Calm - N/A   Clear
12:55 AM 69.6 °F - 66.0 °F 88% 30.03 in 10.0 mi Calm Calm - N/A   Scattered Clouds
1:15 AM 67.3 °F - 65.5 °F 94% 30.03 in 7.0 mi Calm Calm - N/A   Mostly Cloudy
1:35 AM 68.2 °F - 65.3 °F 90% 30.02 in 10.0 mi SSW 3.5 mph - N/A   Scattered Clouds
1:55 AM 68.0 °F - 65.1 °F 90% 30.01 in 10.0 mi Calm Calm - N/A   Clear
2:15 AM 68.0 °F - 64.9 °F 90% 30.00 in 10.0 mi Calm Calm - N/A   Clear
2:35 AM 67.8 °F - 65.3 °F 92% 30.00 in 10.0 mi Calm Calm - N/A   Clear
2:55 AM 67.1 °F - 64.8 °F 92% 29.99 in 10.0 mi Calm Calm - N/A   Clear
3:15 AM 66.2 °F - 64.6 °F 94% 29.98 in 7.0 mi Calm Calm - N/A   Clear
5:55 AM 66.2 °F - 65.3 °F 97% 29.99 in 5.0 mi Calm Calm - N/A   Overcast
6:15 AM 66.6 °F - 65.5 °F 96% 30.00 in 5.0 mi Calm Calm - N/A   Overcast
6:35 AM 66.9 °F - 65.5 °F 95% 30.01 in 5.0 mi SSW 3.5 mph - N/A   Overcast
6:55 AM 67.1 °F - 65.3 °F 94% 30.02 in 5.0 mi SSW 3.5 mph - N/A   Overcast
7:15 AM 68.0 °F - 65.5 °F 92% 30.03 in 7.0 mi Calm Calm - N/A   Overcast
7:35 AM 68.0 °F - 65.3 °F 91% 30.03 in 7.0 mi Calm Calm - N/A   Overcast
7:55 AM 68.5 °F - 65.5 °F 90% 30.03 in 7.0 mi Calm Calm - N/A   Overcast
8:15 AM 68.9 °F - 65.3 °F 88% 30.04 in 10.0 mi SSW 4.6 mph - N/A   Overcast
8:35 AM 69.8 °F - 65.7 °F 87% 30.05 in 10.0 mi SSW 3.5 mph - N/A   Overcast
8:55 AM 69.8 °F - 65.5 °F 86% 30.05 in 10.0 mi SW 4.6 mph - N/A   Overcast
9:15 AM 70.7 °F - 65.5 °F 83% 30.05 in 10.0 mi SW 3.5 mph - N/A   Overcast
9:35 AM 72.7 °F - 65.8 °F 79% 30.05 in 10.0 mi SSW 4.6 mph - N/A   Overcast
9:55 AM 74.7 °F - 65.8 °F 74% 30.04 in 10.0 mi SW 4.6 mph - N/A   Overcast
10:15 AM 74.8 °F - 66.6 °F 75% 30.04 in 10.0 mi SSW 3.5 mph - N/A   Overcast
10:35 AM 75.6 °F - 66.6 °F 74% 30.04 in 10.0 mi Calm Calm - N/A   Mostly Cloudy
10:55 AM 77.0 °F - 67.1 °F 71% 30.03 in 10.0 mi SW 3.5 mph - N/A   Scattered Clouds
11:15 AM 78.3 °F - 67.1 °F 68% 30.03 in 10.0 mi South 6.9 mph - N/A   Scattered Clouds
11:35 AM 78.1 °F - 67.1 °F 69% 30.03 in 10.0 mi SW 5.8 mph - N/A   Mostly Cloudy
11:55 AM 78.8 °F - 67.1 °F 67% 30.03 in 10.0 mi South 6.9 mph - N/A   Mostly Cloudy
12:15 PM 80.1 °F 82.6 °F 67.6 °F 66% 30.02 in 10.0 mi SW 6.9 mph - N/A   Mostly Cloudy
12:35 PM 80.1 °F 82.6 °F 67.6 °F 66% 30.02 in 10.0 mi SW 5.8 mph - N/A   Mostly Cloudy
12:55 PM 81.0 °F 83.6 °F 67.8 °F 64% 30.01 in 10.0 mi SSW 8.1 mph - N/A   Mostly Cloudy
1:15 PM 82.0 °F 84.9 °F 68.0 °F 62% 30.00 in 10.0 mi South 3.5 mph - N/A   Mostly Cloudy
1:35 PM 83.3 °F 86.4 °F 68.2 °F 60% 30.00 in 10.0 mi SSW 4.6 mph - N/A   Mostly Cloudy
1:55 PM 82.2 °F 85.1 °F 68.0 °F 62% 29.99 in 10.0 mi SW 5.8 mph - N/A   Mostly Cloudy
2:15 PM 83.7 °F 87.0 °F 68.5 °F 60% 29.98 in 10.0 mi South 5.8 mph - N/A   Mostly Cloudy
2:35 PM 82.8 °F 85.5 °F 67.6 °F 60% 29.98 in 10.0 mi SSW 5.8 mph - N/A   Overcast
2:55 PM 85.3 °F 88.5 °F 68.0 °F 56% 29.97 in 10.0 mi SSW 6.9 mph - N/A   Scattered Clouds
3:15 PM 83.3 °F 86.2 °F 67.6 °F 59% 29.97 in 10.0 mi SSW 4.6 mph - N/A   Mostly Cloudy
3:35 PM 82.4 °F 85.4 °F 68.0 °F 62% 29.96 in 10.0 mi Calm Calm - N/A   Mostly Cloudy
3:55 PM 81.9 °F 85.2 °F 68.9 °F 65% 29.95 in 10.0 mi SSW 3.5 mph - N/A   Mostly Cloudy
4:15 PM 84.0 °F 87.0 °F 67.6 °F 58% 29.94 in 10.0 mi SW 8.1 mph 19.6 mph N/A   Mostly Cloudy
4:35 PM 83.1 °F 85.9 °F 67.5 °F 59% 29.93 in 10.0 mi South 8.1 mph - N/A   Scattered Clouds
4:55 PM 84.0 °F 86.5 °F 66.9 °F 56% 29.93 in 10.0 mi SSW 4.6 mph - N/A   Scattered Clouds
5:15 PM 84.4 °F 87.3 °F 67.5 °F 57% 29.92 in 10.0 mi South 3.5 mph - N/A   Mostly Cloudy
5:35 PM 81.7 °F 84.2 °F 67.1 °F 61% 29.93 in 10.0 mi South 4.6 mph - N/A   Mostly Cloudy
5:55 PM 81.9 °F 84.4 °F 67.3 °F 61% 29.92 in 10.0 mi South 4.6 mph - N/A   Scattered Clouds
6:15 PM 79.9 °F - 68.0 °F 67% 29.93 in 10.0 mi Calm Calm - N/A Thunderstorm Thunderstorm
6:35 PM 74.7 °F - 66.4 °F 75% 29.96 in 2.5 mi NNW 13.8 mph 25.3 mph 0.17 in Rain , Thunderstorm Heavy Thunderstorms and Rain
6:55 PM 68.4 °F - 65.5 °F 90% 29.96 in 2.5 mi NNW 8.1 mph - 0.36 in Rain , Thunderstorm Heavy Thunderstorms and Rain
7:15 PM 67.1 °F - 65.3 °F 94% 29.97 in 2.0 mi NNW 4.6 mph - 0.13 in Rain Heavy Rain
7:35 PM 66.6 °F - 65.3 °F 96% 29.98 in 5.0 mi Calm Calm - 0.23 in Rain Light Rain
7:55 PM 66.6 °F - 65.3 °F 96% 29.98 in 2.5 mi Calm Calm - 0.26 in Rain Light Rain
8:15 PM 66.4 °F - 65.3 °F 96% 29.98 in 7.0 mi Calm Calm - 0.01 in Rain Light Rain
8:35 PM 66.2 °F - 64.8 °F 95% 29.98 in 10.0 mi NNW 3.5 mph - 0.01 in Rain Light Rain
8:55 PM 66.2 °F - 64.6 °F 94% 29.98 in 10.0 mi Calm Calm - 0.01 in Rain , Thunderstorm Light Thunderstorms and Rain
9:15 PM 66.2 °F - 64.9 °F 96% 30.00 in 3.0 mi Calm Calm - 0.02 in Rain Light Rain
9:35 PM 66.2 °F - 64.8 °F 95% 30.02 in 2.0 mi South 4.6 mph - 0.20 in Rain Heavy Rain
9:55 PM 65.5 °F - 63.7 °F 94% 30.03 in 4.0 mi SW 3.5 mph - 0.44 in Rain , Thunderstorm Rain
10:15 PM 64.6 °F - 63.1 °F 95% 30.03 in 3.0 mi Calm Calm - 0.10 in Rain Heavy Rain
10:35 PM 64.4 °F - 63.5 °F 97% 30.02 in 7.0 mi NW 4.6 mph - 0.13 in   Overcast
10:55 PM 64.6 °F - 63.7 °F 97% 30.01 in 7.0 mi Calm Calm - 0.16 in   Overcast
11:15 PM 64.6 °F - 63.9 °F 98% 30.00 in 4.0 mi Calm Calm - 0.02 in Rain Rain
11:35 PM 64.8 °F - 64.0 °F 98% 29.98 in 5.0 mi Calm Calm - 0.03 in Rain Light Rain
11:55 PM 64.4 °F - 63.9 °F 98% 29.97 in 3.0 mi Calm Calm - 0.03 in   Mostly Cloudy